Date,TemperatureHighF,TemperatureAvgF,TemperatureLowF,DewpointHighF,DewpointAvgF,DewpointLowF,HumidityHigh,HumidityAvg,HumidityLow,PressureMaxIn,PressureMinIn,WindSpeedMaxMPH,WindSpeedAvgMPH,GustSpeedMaxMPH,PrecipitationSumIn
2013-9-1,72,69,63,65,61,54,81,70,61,29.99,29.74,5,2,9,0.01
2013-9-2,69,60,55,56,53,51,85,71,55,30.10,29.99,4,1,7,0.00
2013-9-3,79,64,51,61,56,50,95,72,45,30.10,30.01,5,1,8,0.00
2013-9-4,87,72,60,68,63,57,90,68,46,30.16,30.02,4,1,7,0.00
2013-9-5,84,72,63,68,61,54,75,62,46,30.23,30.12,3,1,4,0.00
2013-9-6,92,79,70,71,68,66,89,64,41,30.12,29.88,6,2,9,0.00
2013-9-7,93,81,71,73,69,62,82,62,42,30.03,29.87,4,1,7,0.00
2013-9-8,75,70,66,65,62,57,77,68,61,30.06,29.90,3,1,5,0.00
2013-9-9,94,79,70,75,70,65,88,71,46,29.90,29.64,6,2,11,0.00
2013-9-10,83,74,69,73,66,61,85,71,53,30.00,29.77,4,2,8,0.00
2013-9-11,86,74,65,64,60,53,85,58,29,30.07,30.00,8,2,13,0.00
2013-9-12,74,65,56,57,52,48,81,56,36,30.24,30.07,8,2,14,0.00
2013-9-13,73,60,50,51,48,45,82,58,35,30.29,30.08,8,1,10,0.00
2013-9-14,71,60,52,57,51,46,94,67,43,30.10,29.91,6,1,8,0.19
2013-9-15,66,59,52,57,54,46,96,81,61,30.33,29.89,5,2,9,0.13
2013-9-16,69,55,45,48,45,41,83,62,34,30.41,30.26,4,1,5,0.01
2013-9-17,67,57,49,58,51,44,95,75,61,30.26,29.95,6,1,10,0.01
2013-9-18,74,67,59,69,64,58,98,91,79,29.95,29.71,3,1,7,0.08
2013-9-19,78,71,65,71,66,57,96,83,65,29.82,29.66,6,1,13,0.24
2013-9-20,65,58,51,58,53,48,86,76,55,29.94,29.79,8,2,11,0.01
2013-9-21,66,54,47,52,48,45,90,75,51,30.00,29.91,4,1,6,0.01
2013-9-22,75,60,48,60,52,45,88,71,51,29.98,29.85,5,2,7,0.00
2013-9-23,75,63,54,58,54,49,80,64,44,29.96,29.88,6,2,9,0.00
2013-9-24,78,64,53,60,54,49,83,65,44,29.98,29.92,2,1,4,0.00
2013-9-25,76,63,53,59,54,50,89,68,45,29.98,29.88,4,1,6,0.00
2013-9-26,84,68,56,65,58,52,79,64,45,29.94,29.84,7,2,12,0.00
2013-9-27,86,74,66,67,63,60,77,64,44,29.93,29.81,6,2,12,0.00
2013-9-28,73,62,50,64,56,47,92,75,60,29.95,29.65,7,2,11,0.12
2013-9-29,78,62,47,53,48,43,84,58,27,29.96,29.81,6,1,9,0.01
2013-9-30,81,69,60,59,54,49,63,51,34,29.81,29.61,8,3,11,0.00